Location: Igri�s
(42.2144°N, 0.4320°W)
Time: 17:02:08
(UTC+00:00)

USA 234 - Pass Details

Date: 13 August 2020
Orbit: 1100 x 1108 km, 123.0° (Epoch: 16 September)

Event Time Altitude Azimuth Distance (km) Brightness Sun altitude
Exits shadow 23:45:26 29° 269° (W) 1,883 4.4 -33.3°
Drops below altitude 10° 23:49:13 10° 298° (WNW) 2,963 5.8 -33.4°
Sets 23:51:56 0° 306° (NW) 3,926 6.7 -33.4°
